Weather History for Farmington, MO

Change the Weather History Date:

Tuesday, November 27, 2012

  Actual Average Record
Temperature  
Mean Temperature 30 °F -  
Max Temperature 39 °F 49 °F 75 °F (1998)
Min Temperature 21 °F 33 °F 17 °F (1996)
Degree Days  
Heating Degree Days 35    
Moisture  
Dew Point 20 °F    
Average Humidity 69    
Maximum Humidity 86    
Minimum Humidity 45    
Precipitation  
Precipitation 0.00 in - - ()
Sea Level Pressure  
Sea Level Pressure 30.37 in    
Wind  
Wind Speed 5 mph (NNW)    
Max Wind Speed 12 mph    
Max Gust Speed -    
Visibility 10 miles    
Events      
Averages and records for this station are not official NWS values.
T = Trace of Precipitation, MM = Missing Value Source: NWS Daily Summary

Daily Weather History Graph

Daily Weather History Graph

Search for Another Location

Airport:

Trip Planner

Search our weather history database for the weather conditions in past years. The results will help you decide how hot, cold, wet, or windy it might be!

Date:

Astronomy

Nov. 27, 2012 Rise Set
Actual Time 6:54 AM CST 4:43 PM CST
Civil Twilight 6:26 AM CST 5:12 PM CST
Nautical Twilight 5:53 AM CST 5:45 PM CST
Astronomical Twilight 5:22 AM CST 6:16 PM CST
Moon 4:15 PM CST (11/27) 6:00 AM CST (11/27)
Length of Visible Light 10h 46m
Length of Day
9h 49m
Waxing Gibbous, 99% of the Moon is Illuminated
Nov 27
Waxing Gibbous
Nov 28
Full
Dec 6
Last Quarter
Dec 13
New
Dec 19
First Quarter

Hourly Weather History & Observations

Time (CST) Temp. Windchill Dew Point Humidity Pressure Visibility Wind Dir Wind Speed Gust Speed Precip Events Conditions
12:15 AM 30.2 °F 23.4 °F 24.8 °F 80% 30.35 in 10.0 mi North 6.9 mph - N/A   Overcast
12:35 AM 32.0 °F 24.8 °F 26.6 °F 80% 30.35 in 10.0 mi North 8.1 mph - N/A   Overcast
12:55 AM 30.2 °F 21.9 °F 24.8 °F 80% 30.35 in 10.0 mi North 9.2 mph - N/A   Overcast
1:15 AM 30.2 °F 20.8 °F 21.2 °F 69% 30.36 in 10.0 mi North 11.5 mph - N/A   Mostly Cloudy
1:35 AM 28.4 °F 19.1 °F 21.2 °F 74% 30.36 in 10.0 mi North 10.4 mph - N/A   Clear
1:55 AM 28.4 °F 21.2 °F 19.4 °F 69% 30.36 in 10.0 mi North 6.9 mph - N/A   Clear
2:15 AM 28.4 °F 19.7 °F 19.4 °F 69% 30.36 in 10.0 mi NNW 9.2 mph - N/A   Clear
2:35 AM 26.6 °F 20.0 °F 19.4 °F 74% 30.36 in 10.0 mi NNW 5.8 mph - N/A   Clear
2:55 AM 26.6 °F 19.1 °F 19.4 °F 74% 30.35 in 10.0 mi NNW 6.9 mph - N/A   Clear
3:15 AM 26.6 °F 19.1 °F 19.4 °F 74% 30.34 in 10.0 mi NNW 6.9 mph - N/A   Clear
3:35 AM 26.6 °F 20.0 °F 19.4 °F 74% 30.34 in 10.0 mi NNW 5.8 mph - N/A   Clear
3:55 AM 26.6 °F 22.6 °F 17.6 °F 69% 30.34 in 10.0 mi NNW 3.5 mph - N/A   Clear
4:15 AM 24.8 °F 19.1 °F 19.4 °F 80% 30.36 in 10.0 mi NNW 4.6 mph - N/A   Clear
4:35 AM 24.8 °F 19.1 °F 19.4 °F 80% 30.36 in 10.0 mi NNW 4.6 mph - N/A   Clear
4:55 AM 24.8 °F 19.1 °F 17.6 °F 74% 30.37 in 10.0 mi NNW 4.6 mph - N/A   Clear
5:15 AM 24.8 °F 16.9 °F 19.4 °F 80% 30.37 in 10.0 mi NNW 6.9 mph - N/A   Clear
5:35 AM 23.0 °F 14.7 °F 17.6 °F 80% 30.37 in 10.0 mi NNW 6.9 mph - N/A   Clear
5:55 AM 23.0 °F 13.1 °F 17.6 °F 80% 30.37 in 10.0 mi NNW 9.2 mph - N/A   Clear
6:15 AM 23.0 °F 13.1 °F 17.6 °F 80% 30.38 in 10.0 mi NNW 9.2 mph - N/A   Clear
6:35 AM 23.0 °F 13.1 °F 17.6 °F 80% 30.39 in 10.0 mi NNW 9.2 mph - N/A   Clear
6:55 AM 23.0 °F 14.7 °F 17.6 °F 80% 30.39 in 10.0 mi NNW 6.9 mph - N/A   Clear
7:15 AM 21.2 °F 13.6 °F 15.8 °F 80% 30.40 in 10.0 mi NNW 5.8 mph - N/A   Clear
7:35 AM 23.0 °F 14.7 °F 17.6 °F 80% 30.40 in 10.0 mi NNW 6.9 mph - N/A   Clear
7:55 AM 23.0 °F 13.9 °F 17.6 °F 80% 30.40 in 10.0 mi NNW 8.1 mph - N/A   Clear
8:15 AM 24.8 °F 15.3 °F 17.6 °F 74% 30.41 in 10.0 mi NNW 9.2 mph - N/A   Clear
8:35 AM 24.8 °F 16.1 °F 17.6 °F 74% 30.42 in 10.0 mi NNW 8.1 mph - N/A   Clear
8:55 AM 26.6 °F 19.1 °F 17.6 °F 69% 30.43 in 10.0 mi North 6.9 mph - N/A   Clear
9:15 AM 26.6 °F 19.1 °F 19.4 °F 74% 30.43 in 10.0 mi NNW 6.9 mph - N/A   Clear
9:35 AM 28.4 °F 22.2 °F 19.4 °F 69% 30.44 in 10.0 mi North 5.8 mph - N/A   Clear
9:55 AM 28.4 °F 22.2 °F 21.2 °F 74% 30.45 in 10.0 mi North 5.8 mph - N/A   Clear
10:15 AM 30.2 °F 25.4 °F 21.2 °F 69% 30.44 in 10.0 mi NE 4.6 mph - N/A   Clear
10:35 AM 32.0 °F 26.4 °F 21.2 °F 64% 30.45 in 10.0 mi NW 5.8 mph - N/A   Clear
10:55 AM 33.8 °F 27.7 °F 21.2 °F 60% 30.44 in 10.0 mi NNE 6.9 mph - N/A   Clear
11:15 AM 33.8 °F 27.0 °F 23.0 °F 65% 30.44 in 10.0 mi North 8.1 mph - N/A   Clear
11:35 AM 33.8 °F 29.6 °F 23.0 °F 65% 30.42 in 10.0 mi North 4.6 mph - N/A   Clear
11:55 AM 35.6 °F 32.8 °F 21.2 °F 56% 30.41 in 10.0 mi NNW 3.5 mph - N/A   Clear
12:15 PM 35.6 °F 30.7 °F 21.2 °F 56% 30.40 in 10.0 mi NNW 5.8 mph - N/A   Clear
12:35 PM 35.6 °F 30.7 °F 21.2 °F 56% 30.40 in 10.0 mi NW 5.8 mph - N/A   Clear
12:55 PM 37.4 °F - 23.0 °F 56% 30.39 in 10.0 mi Calm Calm - N/A   Clear
1:15 PM 37.4 °F 32.8 °F 19.4 °F 48% 30.37 in 10.0 mi ENE 5.8 mph - N/A   Clear
1:35 PM 37.4 °F 34.9 °F 21.2 °F 52% 30.36 in 10.0 mi NW 3.5 mph - N/A   Clear
1:55 PM 39.2 °F 37.0 °F 21.2 °F 49% 30.35 in 10.0 mi NE 3.5 mph - N/A   Clear
2:15 PM 39.2 °F - 21.2 °F 49% 30.34 in 10.0 mi Calm Calm - N/A   Clear
2:35 PM 39.2 °F - 21.2 °F 49% 30.34 in 10.0 mi Calm Calm - N/A   Clear
2:55 PM 39.2 °F - 21.2 °F 49% 30.34 in 10.0 mi Calm Calm - N/A   Clear
3:15 PM 39.2 °F - 19.4 °F 45% 30.33 in 10.0 mi Calm Calm - N/A   Clear
3:35 PM 39.2 °F - 19.4 °F 45% 30.34 in 10.0 mi Calm Calm - N/A   Clear
3:55 PM 39.2 °F - 19.4 °F 45% 30.34 in 10.0 mi Calm Calm - N/A   Clear
4:15 PM 39.2 °F - 19.4 °F 45% 30.34 in 10.0 mi Calm Calm - N/A   Clear
4:35 PM 37.4 °F - 19.4 °F 48% 30.34 in 10.0 mi Calm Calm - N/A   Clear
4:55 PM 37.4 °F - 19.4 °F 48% 30.34 in 10.0 mi Calm Calm - N/A   Clear
5:15 PM 35.6 °F - 19.4 °F 52% 30.34 in 10.0 mi Calm Calm - N/A   Clear
6:15 PM 33.8 °F - 19.4 °F 56% 30.33 in 10.0 mi Calm Calm - N/A   Clear
6:35 PM 30.2 °F - 21.2 °F 69% 30.33 in 10.0 mi Calm Calm - N/A   Clear
6:55 PM 30.2 °F - 21.2 °F 69% 30.34 in 10.0 mi Calm Calm - N/A   Clear
7:15 PM 30.2 °F - 19.4 °F 64% 30.33 in 10.0 mi Calm Calm - N/A   Clear
7:35 PM 28.4 °F - 19.4 °F 69% 30.33 in 10.0 mi Calm Calm - N/A   Clear
7:55 PM 28.4 °F - 21.2 °F 74% 30.33 in 10.0 mi Calm Calm - N/A   Clear
8:15 PM 26.6 °F - 21.2 °F 80% 30.34 in 10.0 mi Calm Calm - N/A   Clear
8:35 PM 28.4 °F - 21.2 °F 74% 30.33 in 10.0 mi Calm Calm - N/A   Clear
8:55 PM 26.6 °F - 19.4 °F 74% 30.33 in 10.0 mi Calm Calm - N/A   Clear
9:15 PM 26.6 °F - 21.2 °F 80% 30.34 in 10.0 mi Calm Calm - N/A   Clear
9:35 PM 24.8 °F - 21.2 °F 86% 30.34 in 10.0 mi Calm Calm - N/A   Clear
9:55 PM 24.8 °F - 21.2 °F 86% 30.34 in 10.0 mi Calm Calm - N/A   Clear
10:15 PM 24.8 °F - 21.2 °F 86% 30.35 in 10.0 mi Calm Calm - N/A   Clear
10:35 PM 24.8 °F - 19.4 °F 80% 30.35 in 10.0 mi Calm Calm - N/A   Clear
10:55 PM 24.8 °F - 21.2 °F 86% 30.35 in 10.0 mi Calm Calm - N/A   Clear
11:15 PM 24.8 °F - 21.2 °F 86% 30.36 in 10.0 mi Calm Calm - N/A   Clear
11:55 PM 24.8 °F - 21.2 °F 86% 30.35 in 8.0 mi Calm Calm - N/A   Clear